Theta_e
307 306 306 301 304 308 300 297 297 301 308 313 316 316 320 320 320 322 326 333 333 336 337 342 345 346 347 347 348 348 348 349
304 306 308 305 307 300 298 294 294 300 303 304 308 312 318 318 318 318 320 321 326 336 337 340 344 346 347 348 348 349 349 349
298 297 298 303 303 303 301 298 295 294 300 311 313 316 317 318 318 317 319 320 321 334 338 338 342 346 347 348 348 349 350 350
295 300 303 306 304 303 298 297 297 297 299 316 315 316 317 316 316 317 318 319 321 333 335 337 340 341 346 348 349 350 351 351
292 295 298 299 304 302 301 301 298 297 300 314 314 315 316 315 316 317 318 320 326 332 333 337 340 341 343 347 347 349 351 352
291 293 297 296 304 307 302 299 298 300 303 310 313 314 315 314 317 319 319 319 325 328 332 335 339 341 342 346 349 349 350 351
294 298 299 299 300 306 303 304 301 303 305 309 313 311 312 314 318 320 325 324 323 325 329 333 336 338 341 344 349 350 350 351
291 298 301 301 307 309 310 303 301 304 305 310 313 315 316 320 328 331 334 335 336 334 329 329 335 337 340 345 349 351 351 351
290 297 298 298 303 311 309 310 306 302 306 310 312 318 321 325 329 331 333 335 335 337 338 338 331 336 339 343 348 349 350 351
289 291 293 306 313 313 309 309 312 313 311 315 320 323 327 329 329 330 331 331 335 339 343 346 348 339 337 341 343 347 347 347
290 288 298 304 307 308 306 304 310 314 319 323 324 321 319 325 327 329 329 329 331 338 341 343 347 347 343 341 342 342 342 344
289 294 292 301 309 312 310 299 310 311 313 315 318 309 313 320 323 323 325 328 329 331 332 333 342 349 346 345 344 343 344 346
297 295 298 305 307 311 299 300 308 310 309 308 306 311 315 316 318 321 321 324 328 327 327 334 338 339 340 344 346 349 351 351
296 294 294 308 307 304 304 307 308 307 311 311 310 310 311 311 313 317 317 319 324 322 322 327 335 336 334 336 341 352 352 351
297 297 303 305 305 307 307 306 306 308 310 311 310 308 310 311 312 314 315 316 320 317 318 321 325 333 334 338 339 338 348 349
298 301 305 307 310 311 311 310 311 311 312 312 310 312 311 311 312 312 314 315 317 315 315 316 321 324 328 338 338 334 339 346
299 302 306 308 310 311 312 313 313 313 313 312 311 310 310 310 310 311 313 314 314 314 314 314 317 319 323 331 335 334 335 334
296 303 306 306 310 312 311 311 313 312 311 312 312 310 311 310 311 311 311 312 312 313 314 315 316 316 319 324 328 333 331 332
303 309 309 311 311 312 310 311 311 310 311 310 311 311 310 309 310 312 311 311 311 311 313 313 314 314 317 320 323 326 329 332
Wind_Speed
3 2 5 2 2 5 8 2 4 2 7 10 5 3 8 8 5 4 3 5 9 10 11 13 15 16 17 15 14 14 14 11
4 4 2 6 4 3 4 4 3 3 5 7 4 4 9 10 10 8 4 7 8 11 12 13 13 14 14 14 17 14 13 12
4 3 7 1 1 7 5 5 7 3 8 8 7 7 10 11 8 10 9 7 8 8 12 10 11 12 13 12 13 12 13 12
10 5 3 5 7 5 7 5 2 4 8 5 9 11 9 9 9 9 9 11 7 7 8 8 10 12 13 12 13 14 12 12
11 8 3 4 4 5 6 5 6 7 8 3 8 8 6 9 8 8 7 8 2 6 8 9 12 12 12 14 16 13 13 13
10 9 5 3 5 6 5 5 6 7 4 6 10 10 7 5 5 10 14 8 0 1 6 7 8 10 12 13 14 13 13 12
6 5 4 5 4 6 7 7 7 9 10 10 13 1 5 4 5 12 11 14 6 3 4 6 5 7 8 9 10 11 12 12
2 6 7 5 8 10 7 2 1 4 5 4 6 8 7 7 11 9 10 11 9 8 9 8 7 7 6 8 11 11 13 15
7 4 6 6 6 7 7 7 2 5 6 2 9 10 8 11 9 7 9 11 13 12 10 10 7 8 11 13 8 12 13 12
5 3 4 3 8 15 16 8 11 4 3 8 16 11 11 8 7 10 11 13 13 12 14 15 14 9 10 6 7 9 10 8
7 4 2 1 3 3 3 9 13 8 13 13 15 11 13 11 8 8 9 10 9 9 10 13 16 13 6 2 4 5 7 7
3 8 7 6 3 5 1 6 10 9 13 13 6 8 4 8 5 6 8 9 11 12 15 18 17 16 11 7 6 7 7 8
4 5 3 4 10 5 4 7 1 6 8 15 12 2 5 8 11 9 11 12 14 16 13 11 14 15 15 14 14 8 6 5
4 5 2 14 5 5 5 6 5 6 5 6 7 6 7 10 12 14 16 17 14 11 13 13 13 14 14 15 13 12 7 4
5 5 4 7 10 9 5 5 5 9 8 6 14 12 12 13 13 14 15 13 14 10 9 12 12 12 11 12 13 13 11 7
8 5 11 12 14 14 12 13 12 13 13 12 12 14 13 12 13 12 11 11 10 11 11 9 10 9 8 9 9 9 10 10
12 6 10 14 12 10 13 14 14 13 14 13 13 9 9 6 7 7 7 8 7 8 9 9 8 9 8 8 9 8 6 5
3 3 11 2 5 9 13 12 10 9 12 8 8 7 6 6 5 5 7 8 8 9 10 11 8 8 10 8 8 7 7 5
5 6 11 10 12 12 13 12 11 13 9 7 8 7 5 5 8 11 10 10 11 11 9 8 7 7 7 8 8 8 6 6
Wind_Direction
195 129 127 321 181 183 102 25 77 279 292 304 303 316 337 333 354 352 358 183 195 197 189 182 184 189 185 184 191 191 195 190
233 136 49 158 170 85 11 129 207 289 286 244 315 318 323 330 322 309 235 264 246 197 190 188 188 186 187 188 193 191 191 196
70 169 189 67 27 56 111 107 158 181 260 214 222 260 273 278 292 297 309 311 263 180 190 178 175 182 187 187 188 191 195 195
220 251 203 159 184 156 129 216 139 156 266 202 206 221 219 269 278 287 317 309 274 175 164 159 174 181 188 185 194 198 195 195
333 355 28 183 201 139 116 95 192 142 256 235 256 270 272 260 302 316 309 310 258 142 171 179 186 186 187 191 201 196 188 194
199 205 169 192 186 163 116 124 172 223 230 245 248 247 285 277 275 357 340 320 258 185 207 195 192 193 198 203 201 197 192 193
220 211 201 219 294 175 173 173 163 240 200 228 220 276 356 337 345 21 3 12 5 39 291 299 244 203 206 205 196 194 197 199
91 204 214 76 17 62 18 70 267 147 245 262 113 77 61 16 44 24 11 6 1 21 3 310 246 237 237 207 200 189 199 210
225 201 134 34 338 94 94 28 135 183 212 158 75 72 34 36 23 29 19 1 5 2 345 338 316 242 221 211 184 196 206 211
147 57 75 196 115 101 82 40 1 339 99 90 100 87 55 39 29 20 11 9 7 1 358 0 343 316 266 192 183 196 212 210
120 78 74 194 277 333 94 18 4 21 78 103 117 83 43 17 14 13 6 11 358 360 7 13 5 351 345 253 191 184 214 213
104 119 186 226 315 350 80 26 338 35 45 41 68 69 310 319 345 4 19 22 12 13 25 21 6 7 19 359 316 231 227 229
105 109 280 47 311 294 110 196 334 73 60 61 71 138 262 344 15 16 15 5 14 16 19 7 12 16 23 14 3 329 325 299
82 82 129 346 343 145 164 89 120 64 31 108 127 66 30 21 26 19 15 16 14 11 9 5 9 13 12 12 342 338 310 268
102 136 297 339 64 45 62 94 49 72 37 6 61 42 27 10 11 20 11 6 6 6 5 360 3 10 3 345 344 353 355 313
77 343 57 49 56 55 52 59 50 51 50 45 46 41 33 26 5 3 9 2 347 355 3 349 348 358 349 336 335 344 357 348
102 149 83 36 43 52 55 54 53 46 39 37 36 27 29 4 349 357 344 340 349 353 349 344 332 335 334 335 342 345 347 13
116 68 100 103 30 50 60 53 42 55 41 22 33 5 354 343 331 304 327 332 342 342 338 334 333 325 325 330 337 333 327 331
105 97 106 103 55 42 43 32 28 39 23 356 6 12 12 344 339 343 338 331 330 329 315 306 311 316 311 315 323 323 312 306